CAPE
0 77 139 357 352 247 206 291 346 534 512 611 639 665 627 721 750 884 1032 701 824 1258 1007 971 756 670 677 1000 837 668 273 631 1070 1454 1406 1299 1059 1284 936 647 613 389 1265
0 198 362 410 368 370 235 261 281 424 463 528 663 700 771 700 807 924 843 765 1021 1160 1050 848 815 706 576 655 543 743 1091 1220 1375 1481 1438 1421 1420 1529 1091 1099 1081 733 1104
10 209 329 558 346 397 366 243 200 217 305 366 456 467 487 653 658 597 568 612 653 813 1100 862 468 459 506 487 476 584 904 1019 798 1086 1218 1151 1378 1465 1259 874 1124 1289 1316
28 152 376 521 381 321 451 343 228 150 199 296 310 266 289 369 523 667 488 521 602 572 611 946 339 347 405 441 460 655 690 994 823 628 770 849 1125 1365 1261 1032 1060 1349 1409
110 81 242 308 343 341 265 269 251 275 244 260 269 199 179 278 296 365 556 537 569 561 281 241 271 276 268 531 559 487 150 337 717 490 655 789 690 1228 1316 1408 1485 1316 1173
118 113 307 317 204 278 328 253 267 166 181 183 230 231 248 281 299 303 259 336 433 425 586 407 218 290 195 220 262 441 214 353 132 222 448 641 845 1665 1366 939 622 1070 1177
179 179 425 660 481 411 867 748 339 230 231 306 388 271 304 294 432 485 456 529 572 514 477 529 276 203 206 121 148 215 304 214 100 113 390 269 1222 1349 873 564 1057 221 596
155 339 683 862 828 766 555 569 649 555 439 428 366 293 399 646 969 718 688 429 536 472 450 426 436 211 146 118 93 217 313 247 233 78 303 375 1246 989 1101 900 1138 1249 963
239 226 571 914 771 862 942 928 1071 970 833 831 797 724 818 335 470 356 604 539 934 693 488 396 400 302 131 88 112 191 197 297 225 129 465 446 1029 1005 986 1147 1057 942 1084
238 227 271 376 870 759 919 1101 801 886 983 919 768 591 637 490 533 664 179 281 784 793 519 647 400 457 410 155 98 118 185 275 149 125 323 251 687 901 866 889 1178 890 899
220 259 309 389 336 369 511 735 956 485 761 420 665 684 466 579 443 664 240 11 215 497 832 607 671 541 262 263 135 111 296 155 108 140 375 293 1089 898 828 820 933 1202 1151
192 201 202 341 310 477 738 807 441 501 547 427 357 287 224 459 574 402 488 276 0 169 822 729 597 629 519 85 74 89 102 222 172 223 224 320 886 937 724 904 887 782 850
271 471 339 261 434 640 786 284 485 368 345 530 610 388 222 14 199 285 68 322 0 77 216 819 602 294 173 169 53 2 78 164 121 182 56 210 989 980 747 801 803 841 711
170 317 446 516 443 630 553 468 568 511 388 454 393 549 551 135 4 23 135 327 502 211 145 414 102 210 113 105 147 30 62 126 173 112 101 237 810 697 726 555 757 778 652
124 286 366 260 346 559 379 576 784 660 504 828 527 571 729 417 232 303 589 651 356 183 96 385 344 343 311 249 212 66 4 20 73 43 139 156 507 774 753 647 506 711 764
167 437 431 374 428 312 180 409 769 646 828 839 776 1035 816 857 858 883 581 585 618 472 201 79 243 252 234 356 161 258 49 83 95 72 22 85 420 984 974 940 786 708 717
190 549 605 536 284 440 166 568 918 976 959 900 1183 1509 1516 1258 1063 1066 891 741 611 633 594 276 514 416 182 217 186 194 258 101 100 88 27 29 126 564 759 775 882 971 747
354 699 828 842 559 584 471 749 1454 1132 685 1329 1145 1069 680 1035 1332 808 1033 1124 337 755 668 452 719 250 142 115 69 23 196 150 100 93 61 76 33 156 513 779 614 517 590
320 574 793 905 869 930 1168 994 1544 1094 632 871 709 588 62 231 1218 1070 984 978 1199 1051 665 743 673 265 202 163 106 33 193 238 167 82 84 99 88 80 47 83 50 156 364
439 593 574 940 1025 1205 1482 1501 1744 1222 1073 1235 70 234 0 339 1094 214 525 1019 1170 888 592 537 325 612 144 133 194 152 154 145 100 63 55 87 143 138 97 80 43 25 31
454 632 486 1105 1253 1553 1407 1430 1436 1604 1390 1302 929 931 303 749 1619 1109 2 1137 920 1022 919 288 847 219 323 240 154 51 81 100 129 278 177 138 93 97 95 89 75 26 9
407 442 919 1266 1653 1571 1434 946 1094 1586 1126 1179 1001 1294 1752 1540 1779 1366 1199 1246 594 28 976 425 300 424 210 278 126 107 62 74 140 175 172 129 207 331 318 193 227 90 26
678 614 810 1295 1501 1568 1328 1625 1850 1954 886 92 38 1151 2009 2324 1664 381 735 1288 1142 1162 1130 416 396 612 235 336 175 48 31 1 77 161 250 269 287 181 203 208 171 95 82
905 875 772 1498 1150 1055 1414 1998 1330 1090 1420 1402 821 928 2107 2610 2369 1581 1754 1884 1715 1513 1201 511 146 764 697 326 447 249 183 7 0 36 159 308 231 252 111 94 86 79 9
1103 1128 1120 1389 1505 1299 1432 1852 1624 1030 898 1324 2069 1523 2112 2286 2322 2290 2088 1809 2062 1641 1280 364 242 325 729 338 153 483 228 104 1 0 0 93 117 51 9 0 0 0 0
1328 1336 1434 1462 1712 1630 1597 1859 2293 1631 1472 1953 1904 1962 2076 2176 1101 1912 2292 2005 1970 1593 1070 636 452 432 555 588 447 140 210 137 180 53 31 0 0 0 0 0 0 0 0
CIN
0 -5 -3 -1 0 -8 -22 -4 -5 -14 -17 -22 -22 -19 -16 -3 -1 -2 -1 -9 -7 0 -2 -6 -5 -8 -9 -9 -14 -5 -15 -3 -7 -8 -1 0 -6 -2 -11 -39 -44 -76 -1
-11 -3 -44 -37 -11 -20 -14 0 -17 -11 -11 -13 -9 -8 0 0 0 0 -1 0 0 0 0 0 -2 -10 -18 -12 -24 -6 -4 -10 -9 0 0 0 0 -1 -6 -14 -9 -28 -5
-134 -7 -33 -2 -2 -4 -6 -14 -23 -17 -4 -17 -9 -17 -13 -4 0 0 0 0 0 0 0 -1 -19 -29 -28 -19 -22 -13 -4 -15 -20 -9 -17 -11 -1 0 -5 -15 -2 -2 -1
-133 -29 -60 -3 -2 0 0 -4 -14 -22 -10 -19 -13 -22 -30 -23 -2 0 -3 -3 0 0 -2 -1 -27 -49 -22 -31 -23 -11 -8 -2 -13 -20 -29 -25 -1 -2 -4 -1 -3 -2 0
-81 -111 -32 -18 -19 -2 -8 -3 -22 -7 -7 -12 -16 -27 -47 -41 -29 -7 -2 -8 -1 -1 -14 -24 -27 -37 -55 -31 -22 -8 -11 -15 -3 -7 -7 -24 -42 -2 -1 0 0 0 0
-140 -163 -61 -22 -34 -9 -10 -5 -12 -33 -22 -22 -20 -28 -29 -31 -29 -15 -16 -21 -3 -2 -2 -7 -32 -28 -47 -42 -42 -15 -13 -34 -49 -23 -6 -24 -35 0 -3 -15 -40 -2 -2
-123 -94 -39 -7 -12 -10 -1 0 -8 -33 -39 -21 -12 -38 -29 -15 -9 -3 0 -6 -4 -1 -1 -4 -17 -32 -40 -48 -40 -39 -36 -29 -24 -48 -31 -45 -10 0 -31 -52 -13 -98 -29
-162 -63 -20 -5 -2 -1 -1 -1 0 -5 -25 -30 -12 -41 -40 -10 0 -1 -1 -8 -5 -2 -1 0 -8 -33 -42 -56 -45 -35 -19 -4 -24 -42 -28 -52 -11 -15 -7 -12 0 0 -7
-112 -105 -50 -16 -19 0 -10 -1 -1 0 -3 -1 -4 -8 -6 -29 -19 -20 -7 -8 0 -1 0 -2 -9 -14 -42 -56 -47 -43 -40 -28 -25 -47 -32 -52 -17 -22 -6 0 0 0 0
-114 -122 -111 -94 -28 -38 -12 -7 -7 -6 -2 -1 -9 -22 -17 -25 -20 -9 -31 -21 -2 -1 -2 0 -10 -11 -19 -39 -43 -35 -16 -39 -58 -48 -47 -55 -35 -17 -11 -8 0 0 0
-151 -139 -114 -108 -132 -97 -59 -37 -19 -69 -14 -32 -27 -20 -21 -20 -24 -10 -15 -28 -22 -10 0 -1 0 -12 -29 -29 -42 -56 -34 -16 -38 -48 -38 -43 -16 -11 -5 -3 0 0 -1
-159 -171 -195 -130 -181 -86 -42 -46 -77 -76 -42 -48 -48 -34 -50 -41 -34 -29 -11 -23 -32 -29 0 -1 -8 -4 -21 -48 -53 -59 -50 -73 -58 -32 -48 -45 -12 -5 -9 0 0 0 0
-115 -98 -117 -175 -146 -107 -63 -126 -96 -81 -66 -49 -35 -24 -112 -76 -101 -90 -101 -37 0 -35 -29 -5 -19 -42 -43 -43 -44 -21 -63 -50 -43 -50 -59 -47 -10 -3 -4 -1 -1 0 0
-173 -133 -106 -115 -138 -97 -100 -80 -53 -59 -59 -47 -35 -8 -53 -64 -20 -144 -114 -46 -28 -30 -34 -11 -30 -43 -45 -40 -25 -55 -55 -29 -29 -44 -61 -29 -9 -12 -1 -6 0 0 0
-207 -130 -123 -167 -128 -69 -83 -50 -39 -36 -37 -31 -33 -40 -42 -59 -105 -96 -51 -35 -30 -66 -98 -40 -23 -31 -32 -20 -20 -41 -23 -58 -50 -72 -72 -36 -13 -10 -7 -5 -4 0 0
-174 -115 -99 -109 -101 -105 -118 -53 -30 -37 -24 -32 -40 -30 -40 -40 -35 -27 -28 -37 -39 -46 -69 -74 -39 -28 -26 -15 -19 -32 -48 -46 -62 -84 -86 -53 -17 -2 -1 0 0 0 0
-148 -98 -63 -80 -151 -86 -127 -27 -25 -33 -33 -28 -32 -20 -20 -25 -15 -11 -31 -42 -48 -47 -41 -73 -34 -29 -38 -38 -37 -54 -35 -49 -44 -57 -78 -74 -48 -13 -6 -3 -1 0 0
-63 -78 -82 -75 -112 -101 -83 -35 -30 -23 -37 -36 -26 -41 -83 -46 -27 -21 -25 -28 -45 -30 -32 -64 -13 -40 -44 -44 -41 -58 -31 -17 -42 -47 -71 -60 -78 -45 -11 -2 -2 -2 -1
-76 -53 -44 -86 -82 -68 -42 -26 -32 -31 -64 -79 -77 -96 -67 -112 -32 -33 -41 -39 -23 -11 -29 -16 -28 -41 -46 -58 -66 -76 -22 -12 -96 -68 -52 -41 -43 -43 -42 -21 -27 -9 -4
-69 -46 -42 -61 -60 -62 -28 -19 -23 -33 -56 -80 -45 -155 -13 -107 -40 -126 -99 -45 -10 -18 -20 -21 -31 -43 -68 -76 -42 -21 -18 -21 -22 -53 -69 -54 -44 -51 -25 -23 -43 -58 -18
-61 -48 -35 -33 -59 -39 -33 -20 -22 -27 -46 -59 -112 -105 -134 -72 -27 -44 -43 -42 -35 -34 -26 -42 -30 -30 -49 -65 -79 -43 -16 -20 -23 -23 -41 -66 -56 -48 -39 -34 -35 -50 -26
-85 -64 -49 -31 -32 -37 -31 -38 -25 -19 -63 -73 -111 -74 -60 -53 -28 -66 -63 -43 -50 -24 -41 -28 -39 -27 -43 -54 -55 -47 -34 -26 -31 -34 -45 -62 -36 -20 -17 -30 -18 -21 -62
-89 -87 -76 -55 -47 -52 -39 -27 -17 -20 -80 -186 -92 -53 -41 -17 -48 -87 -72 -35 -37 -44 -31 -43 -40 -30 -37 -30 -63 -53 -41 -6 -35 -33 -33 -38 -35 -47 -25 -19 -33 -38 -26
-104 -98 -91 -66 -74 -58 -40 -17 -32 -31 -21 -30 -38 -47 -27 -15 -13 -25 -34 -18 -18 -25 -17 -30 -65 -26 -18 -16 -26 -35 -58 -58 0 -53 -41 -27 -31 -29 -47 -52 -63 -46 -8
-127 -114 -101 -87 -73 -55 -49 -25 -32 -47 -40 -20 -16 -26 -17 -20 -8 -5 -10 -21 -19 -29 -27 -61 -38 -30 -26 -42 -49 -32 -41 -46 -5 0 0 -37 -30 -46 -27 0 0 0 0
-126 -144 -131 -112 -86 -65 -50 -28 -21 -32 -18 -17 -17 -19 -26 -30 -55 -58 -25 -27 -23 -38 -45 -51 -55 -47 -41 -38 -47 -60 -31 -36 -36 -80 -66 -4 0 0 0 0 0 0 0
Wind_Speed
15 14 8 4 6 9 10 9 8 8 6 9 20 25 29 34 32 32 32 32 31 31 30 29 29 27 26 27 29 31 36 36 21 16 12 8 10 16 10 7 7 11 11
21 15 15 4 5 7 6 6 10 7 14 17 21 28 30 32 29 28 29 29 29 29 28 28 28 26 25 27 29 32 35 36 23 27 21 7 6 5 7 8 7 9 7
18 18 15 9 6 6 26 33 31 30 29 28 29 31 31 31 27 25 26 27 24 25 26 26 25 25 26 26 28 31 33 35 35 17 4 6 7 5 6 9 6 5 6
26 14 19 10 31 31 30 31 30 29 28 28 28 28 28 28 25 24 24 24 21 22 24 23 23 24 25 26 27 28 31 32 32 32 19 11 9 5 4 6 5 4 4
26 21 14 22 29 31 30 29 29 28 27 26 25 25 24 23 23 22 22 22 20 21 21 22 23 24 25 25 26 27 30 30 28 25 21 20 14 6 3 4 3 6 4
21 29 27 30 30 29 29 28 27 27 25 25 24 22 21 20 19 19 19 19 19 18 19 21 22 23 25 25 24 23 26 25 25 25 26 26 18 5 2 2 5 3 4
24 25 25 29 29 28 28 27 26 26 24 23 22 21 19 18 18 17 17 17 17 16 18 20 22 23 24 24 24 22 22 24 22 23 28 30 20 9 3 6 4 5 9
29 30 24 24 27 28 27 26 25 24 23 22 21 20 19 18 17 17 17 17 17 17 19 20 21 22 23 24 24 23 22 22 23 24 29 30 27 12 10 1 5 4 2
30 29 26 26 25 26 26 25 24 23 22 21 20 19 18 18 18 18 18 18 18 18 19 21 22 22 23 24 25 23 21 20 25 26 30 29 28 16 14 8 5 6 3
27 28 28 26 25 24 24 23 23 22 22 21 20 20 19 19 18 18 19 19 19 19 19 21 22 22 23 24 25 23 23 21 22 26 27 28 28 26 17 11 8 6 4
27 27 28 27 26 25 22 22 21 21 20 20 20 20 19 18 18 17 18 17 18 19 19 21 22 23 23 25 24 23 20 22 24 23 27 28 27 27 26 18 16 10 6
27 25 26 25 24 22 22 21 20 19 20 21 20 19 18 16 16 16 17 16 18 19 19 20 21 22 23 23 23 24 23 14 23 25 23 23 24 25 26 26 23 20 12
25 25 25 24 23 22 22 21 21 19 20 19 19 19 19 21 19 18 16 17 17 18 18 19 19 21 22 23 22 23 22 17 25 24 24 23 22 22 25 26 26 25 24
25 25 24 23 22 22 21 20 19 19 19 18 17 14 17 18 17 18 17 17 17 18 18 17 19 20 21 20 22 22 21 21 24 23 24 22 23 23 24 25 25 23 23
22 24 19 18 9 16 19 18 18 18 17 16 15 16 18 18 18 17 17 18 18 19 19 17 18 18 18 19 19 20 20 22 22 17 21 22 22 21 20 20 20 20 21
23 21 19 14 7 10 16 16 17 18 16 15 15 16 17 17 17 17 18 17 18 18 17 18 19 18 19 17 18 18 20 14 18 19 17 17 19 20 21 19 17 16 15
21 18 17 14 13 11 13 15 15 15 15 14 15 16 16 16 16 17 18 17 17 17 18 18 18 18 17 13 10 14 9 18 18 18 17 20 20 20 21 21 20 21 21
19 18 16 14 14 14 15 16 12 16 11 11 13 15 15 14 16 17 17 17 17 17 16 16 16 16 15 16 18 8 5 21 18 18 12 12 14 18 19 19 19 19 18
19 19 18 16 16 17 18 14 13 13 10 12 12 17 16 16 15 16 14 15 15 14 15 16 15 16 15 10 14 10 22 20 16 13 17 12 14 15 17 16 16 16 17
19 20 18 17 16 16 17 15 13 13 13 15 16 20 10 18 18 17 15 15 17 21 18 17 16 15 17 19 14 15 11 22 21 18 19 17 14 8 8 19 19 21 18
19 20 19 19 17 14 11 12 15 15 15 16 16 16 15 17 18 17 16 17 17 18 18 17 18 16 16 18 20 19 21 21 21 21 20 19 20 22 22 10 21 17 17
21 19 19 19 19 17 15 18 16 14 12 16 15 13 17 16 16 16 16 15 16 15 17 16 15 15 15 18 20 20 18 18 20 20 18 19 19 19 20 19 17 15 14
21 21 21 20 21 19 17 19 17 15 15 14 14 13 12 15 17 16 16 16 15 13 15 15 15 15 15 18 14 14 15 14 16 17 17 17 17 17 17 17 16 15 13
21 21 22 21 21 19 20 17 17 17 16 16 13 11 11 14 15 15 16 16 15 16 15 15 18 15 16 16 15 15 13 15 13 13 14 17 16 16 16 15 14 12 11
21 21 21 20 21 20 21 19 18 16 17 18 13 12 12 13 14 14 15 16 16 15 16 17 19 18 13 13 16 14 16 16 16 13 14 15 15 16 14 14 13 13 11
24 23 21 20 19 19 19 19 17 17 17 17 11 13 13 13 13 15 14 15 15 16 15 16 17 15 15 15 14 16 17 17 17 14 13 15 14 15 14 14 13 12 12
Wind_Direction
182 180 175 104 100 80 77 75 80 72 92 62 54 58 67 88 83 106 98 92 81 82 93 103 105 113 114 111 105 107 104 110 77 70 70 149 163 161 156 140 149 159 155
171 180 174 114 123 85 94 83 66 64 55 54 55 69 76 101 117 119 109 86 81 98 105 102 104 111 115 115 114 115 117 113 78 80 70 69 76 112 149 149 143 155 151
175 177 177 174 95 82 156 126 134 134 129 82 82 86 100 99 119 125 115 101 118 114 111 108 113 115 118 123 122 117 120 118 117 84 112 151 159 136 141 155 144 105 149
166 181 176 182 112 143 146 130 136 128 126 111 107 108 107 101 115 124 117 114 125 122 112 118 120 119 119 125 129 123 124 129 132 130 164 173 169 149 129 152 149 90 110
167 138 80 169 106 132 138 135 122 127 119 122 122 124 113 117 117 128 124 118 126 121 118 119 121 123 122 131 131 129 118 135 148 156 171 169 174 172 97 151 87 59 72
175 128 105 120 120 118 140 136 126 122 123 131 134 132 132 138 133 137 134 127 127 130 127 124 124 127 128 135 139 139 131 154 156 162 165 154 177 191 96 74 42 163 169
171 172 101 117 123 132 142 136 129 128 126 139 140 139 147 146 135 139 142 138 135 142 135 131 128 128 132 143 145 145 148 141 166 165 147 142 178 199 199 42 184 184 189
111 129 104 105 119 139 138 134 132 132 128 138 147 143 147 139 136 144 142 134 137 137 131 130 133 130 132 143 156 152 149 153 151 162 149 145 162 197 200 253 206 203 213
114 120 115 119 116 131 132 127 138 133 127 142 148 143 145 135 137 131 135 134 135 135 132 127 131 132 137 143 152 156 161 151 141 155 134 153 161 196 202 216 229 220 6
109 123 132 124 123 123 121 120 132 130 127 138 139 141 140 141 141 135 128 126 133 129 136 130 130 132 136 145 152 157 151 150 145 160 162 154 158 169 203 220 234 244 339
122 124 139 135 128 129 120 126 121 121 127 131 139 143 136 136 139 136 130 132 134 134 137 134 130 136 136 143 149 161 172 144 146 160 151 139 140 144 173 206 214 234 274
128 128 130 129 123 117 129 123 116 114 126 137 139 136 122 151 143 144 144 136 129 134 136 132 138 140 147 150 156 163 153 206 136 146 121 120 131 137 146 164 183 203 243
141 135 141 138 131 127 137 123 127 124 133 137 147 129 104 143 107 119 143 135 129 128 136 135 133 142 147 158 155 163 160 178 157 146 137 128 121 123 143 155 167 163 171
143 142 154 143 138 143 133 131 129 133 134 138 139 95 119 138 129 135 136 126 131 124 140 139 141 137 148 155 148 154 126 119 136 137 142 132 134 133 139 148 150 143 150
127 129 105 108 59 96 122 114 137 136 129 115 129 89 118 117 113 122 130 129 126 126 135 118 144 149 154 154 148 154 162 142 140 118 134 134 138 135 129 132 137 141 143
132 126 119 105 52 72 107 108 118 135 123 102 107 96 103 112 117 122 116 126 127 129 129 120 134 148 162 142 144 137 151 104 119 119 114 122 130 134 142 139 134 130 128
135 120 114 98 102 89 109 116 102 104 104 84 101 107 123 114 142 134 113 132 125 131 136 127 127 114 110 94 66 289 84 133 123 118 119 137 140 142 150 150 150 156 158
126 119 115 101 98 106 119 118 82 142 39 354 305 266 241 230 102 141 134 130 119 105 128 131 128 75 126 156 168 13 308 152 118 122 102 100 114 141 147 146 149 153 153
124 127 123 116 110 118 127 107 101 125 29 44 40 159 181 190 184 86 189 134 127 117 116 107 87 60 35 94 309 47 141 129 102 92 114 94 106 120 127 130 140 150 158
120 132 123 125 123 118 122 114 89 104 85 103 93 181 348 181 129 88 158 115 85 54 78 61 51 25 29 46 57 65 80 145 133 121 123 121 103 55 59 154 152 165 153
123 129 133 131 127 113 96 102 135 99 91 112 118 135 129 144 104 83 110 80 52 75 61 62 53 37 29 51 52 54 88 126 153 147 135 130 129 156 173 311 166 140 142
133 134 132 129 128 125 115 133 119 121 87 119 129 85 133 123 60 82 93 84 80 83 63 58 59 46 60 85 63 63 56 67 128 143 117 129 136 144 159 150 138 128 121
135 135 140 140 142 136 135 146 128 90 100 106 113 91 35 60 65 80 87 99 79 88 85 71 86 76 88 111 60 51 52 56 78 103 119 120 119 122 133 131 134 124 113
143 141 142 142 148 147 149 147 150 156 136 144 130 87 64 83 91 99 86 81 81 83 103 122 132 74 102 127 118 144 57 83 52 51 99 117 110 108 97 95 88 82 85
146 146 143 140 146 151 156 157 157 148 153 168 87 71 100 92 104 87 83 86 100 106 131 135 127 127 70 61 125 98 92 94 90 61 69 105 118 115 95 90 78 88 82
152 149 145 141 143 149 153 157 149 149 152 154 82 84 94 85 88 121 99 100 111 118 124 135 140 126 116 114 84 114 112 125 133 103 103 117 111 121 117 104 94 85 100